Wind_Speed
21 20 21 20 20 21 21 20 20 20 20 19 18 18 17 16 16 16 15 15 15 15 15 15 15 15 15 14 14 14 14 14 15 14 14 14 14 13 14 14 15 15 16
22 22 21 20 21 21 21 20 20 20 20 19 19 18 18 17 16 17 16 15 15 15 15 14 14 15 15 14 14 14 14 14 14 15 15 16 15 15 15 16 16 17 17
23 22 21 20 21 21 20 20 20 20 19 20 19 18 18 18 17 18 17 16 15 15 15 15 15 15 15 15 16 16 15 15 16 16 16 16 15 15 16 17 17 17 18
23 23 22 20 20 21 21 20 20 19 19 19 19 19 19 20 19 18 17 16 16 16 16 16 16 16 16 16 17 17 17 17 17 17 17 16 16 16 16 17 18 18 18
23 23 23 21 21 21 21 20 19 19 19 19 19 19 19 19 19 18 17 17 17 17 17 17 17 16 17 17 17 18 18 18 18 18 18 17 18 18 17 16 18 18 18
23 23 23 22 21 21 20 20 20 20 20 20 20 19 19 19 18 18 18 18 18 18 18 17 18 17 17 17 17 18 18 19 19 19 19 19 19 19 18 18 18 18 19
24 23 23 22 21 20 20 19 19 19 19 19 19 19 19 19 19 19 18 19 19 19 19 18 19 19 18 17 17 18 18 19 20 20 20 20 20 20 20 19 18 18 18
24 22 22 20 20 19 19 19 19 19 19 19 19 19 19 19 20 19 20 20 20 20 20 20 20 20 19 18 18 19 18 19 20 20 20 20 20 20 20 19 19 19 19
22 21 21 20 20 19 19 19 19 19 19 19 19 19 19 19 19 20 20 21 20 20 21 20 21 20 19 18 19 19 19 19 20 20 20 20 20 20 20 20 21 21 21
22 21 20 19 19 19 19 18 18 19 18 18 18 18 18 19 19 20 20 20 19 20 20 20 19 19 19 20 20 19 19 19 19 19 20 21 21 21 21 22 22 22 22
21 20 20 19 18 18 19 18 18 18 18 18 18 18 18 18 19 20 21 21 20 19 20 19 19 19 20 20 20 20 20 20 20 20 20 21 22 22 22 23 24 24 23
21 21 19 18 17 17 17 19 19 19 19 19 19 18 19 19 20 20 21 21 20 20 20 20 20 20 20 21 21 21 21 21 22 22 22 23 24 24 24 24 24 24 24
20 19 19 18 18 18 18 19 20 20 19 19 19 19 19 20 20 20 20 20 19 19 20 20 20 20 21 21 22 22 22 22 22 23 24 25 25 25 25 25 25 25 25
21 21 21 20 19 19 19 19 19 20 20 20 20 20 19 19 20 19 18 19 19 20 20 21 21 21 22 22 23 23 23 23 24 24 25 26 26 26 26 26 26 25 25
22 21 21 21 21 20 20 20 20 20 21 21 21 20 19 18 18 18 19 20 20 20 21 21 22 22 22 23 23 24 24 24 25 25 25 26 27 26 26 26 25 25 24
22 22 21 21 21 21 21 21 21 21 20 20 19 19 19 19 19 19 20 21 21 21 22 22 23 23 23 24 24 25 24 25 25 26 26 27 26 26 26 26 25 24 25
21 22 21 20 20 21 21 21 21 20 20 19 19 19 20 20 20 21 21 21 21 22 22 23 24 24 24 25 25 24 25 25 26 26 27 26 26 25 25 25 24 25 25
23 23 22 21 20 20 20 20 20 19 19 19 20 20 20 21 21 21 21 22 22 23 23 24 24 24 24 23 23 24 25 25 26 26 26 26 26 26 26 24 25 25 26
24 23 22 22 20 19 19 19 19 19 20 21 21 22 22 22 22 23 23 23 24 24 24 24 24 24 24 24 24 25 25 25 25 25 26 26 26 25 25 25 25 25 25
24 23 22 21 21 20 19 19 19 20 21 21 22 22 23 23 23 24 24 23 23 23 23 23 24 23 23 24 25 25 25 25 25 25 26 26 26 25 26 26 26 25 25
24 23 22 22 21 21 20 20 20 21 22 22 23 23 24 24 24 24 24 23 24 24 24 24 24 24 24 24 24 24 25 25 25 25 25 25 25 25 25 26 26 26 25
23 22 22 22 21 22 22 21 21 22 22 22 23 23 23 23 23 23 24 24 24 25 25 24 24 24 24 24 24 24 24 24 24 24 24 24 25 25 25 25 25 25 25
21 22 22 22 22 23 23 22 22 22 22 22 23 24 23 23 23 24 24 24 25 25 25 25 25 24 23 23 24 25 24 24 24 24 24 24 24 24 25 25 25 25 25
22 23 23 24 23 24 24 23 23 22 22 23 23 23 24 24 24 24 24 24 25 25 25 25 24 24 23 23 24 24 24 24 24 24 24 24 23 23 24 24 24 24 24
24 25 25 24 24 24 24 24 23 23 23 23 23 23 24 24 23 23 24 24 24 23 23 23 23 23 23 22 22 23 23 23 23 23 22 23 22 23 23 22 22 22 22
25 25 25 25 24 24 24 23 23 23 23 23 23 23 23 23 23 23 23 23 22 22 22 23 22 22 22 22 21 21 21 21 21 21 21 21 20 20 20 20 20 19 19
Wind_Direction
279 277 279 279 281 281 282 281 280 280 281 283 284 280 275 274 276 277 276 270 272 272 270 266 262 258 259 261 261 261 264 267 268 270 272 275 277 279 281 284 284 285 286
276 278 278 279 281 281 281 281 280 281 281 282 281 279 274 272 275 278 275 273 272 272 272 270 265 260 260 261 262 264 266 268 269 272 273 275 276 278 280 282 284 284 284
277 277 276 276 280 281 281 280 281 281 278 278 279 276 271 271 273 274 274 272 270 269 268 268 265 263 262 262 262 264 266 267 271 274 276 278 278 277 280 283 284 285 283
278 277 278 277 277 278 278 278 278 279 279 277 278 277 275 274 271 272 271 269 268 267 266 267 265 265 264 263 263 262 265 267 272 272 275 278 279 281 281 281 283 285 284
282 279 279 278 276 275 276 277 275 276 277 278 277 276 274 272 270 268 268 267 264 265 264 265 265 267 267 264 263 264 265 267 271 272 274 277 279 281 283 284 283 283 284
283 281 279 279 275 274 274 274 274 272 275 276 276 275 272 270 269 267 266 265 264 264 264 264 263 265 266 265 267 267 267 268 271 272 274 277 278 279 282 285 287 285 285
284 282 281 277 276 276 274 273 272 272 273 274 275 274 272 269 270 267 267 266 264 265 265 265 265 265 265 267 267 269 270 270 271 272 274 277 278 279 281 282 285 286 288
286 284 282 276 272 271 270 271 271 273 273 274 272 272 270 269 268 268 268 268 265 265 266 267 267 265 265 268 269 271 272 272 273 272 273 275 278 279 279 280 282 284 288
288 285 281 276 274 273 272 271 272 274 272 271 269 268 268 269 270 269 271 271 269 267 267 268 266 262 263 266 270 272 272 271 272 273 273 275 277 278 278 280 282 285 287
288 285 281 277 273 272 271 273 272 271 270 270 268 267 267 267 268 268 271 273 273 270 268 268 264 263 264 268 270 271 270 269 272 273 274 274 275 277 278 280 282 284 286
284 283 281 279 278 272 270 272 272 271 271 272 270 269 268 268 268 270 270 271 273 272 270 268 268 267 269 269 269 270 270 270 272 271 272 274 276 277 279 280 281 282 284
283 282 282 283 280 275 274 274 272 271 272 271 271 271 272 272 271 270 270 270 271 269 268 269 268 268 269 269 270 270 271 270 270 271 272 275 276 277 278 280 282 281 282
282 282 285 281 279 278 275 274 273 271 272 271 270 271 273 274 271 270 270 271 271 270 270 270 269 269 271 272 273 272 270 269 270 272 273 274 275 276 278 280 281 281 282
284 283 282 278 275 276 274 272 272 271 271 268 269 271 273 272 271 271 270 270 271 272 271 270 269 270 271 272 273 272 271 270 271 273 273 274 276 276 277 278 279 280 281
284 283 282 279 276 274 272 270 270 270 270 268 268 270 271 272 272 272 271 270 271 273 274 272 269 269 271 273 273 273 273 273 274 275 275 276 276 277 277 277 278 279 279
282 281 280 279 275 272 271 271 270 270 269 267 267 269 270 270 271 271 271 272 272 273 274 273 271 269 271 274 275 276 276 275 276 276 276 277 277 276 277 276 278 279 280
280 279 279 277 275 272 272 271 269 268 267 267 268 269 270 271 272 272 272 274 274 274 276 275 273 272 274 275 275 275 276 278 278 278 277 277 277 276 276 276 277 279 281
278 278 279 278 275 272 272 271 268 267 266 266 268 270 271 271 272 273 273 274 273 274 276 277 276 276 277 277 277 277 277 279 280 278 278 278 277 275 274 275 276 278 280
275 274 275 277 277 272 268 268 267 267 268 268 268 270 271 272 273 274 274 274 274 275 276 278 277 276 276 276 279 279 279 279 279 279 278 276 276 276 275 276 277 278 279
273 271 270 271 272 271 268 268 268 268 269 271 272 273 273 273 275 275 274 274 274 276 276 278 277 275 275 277 278 278 279 279 278 278 278 277 279 279 278 277 277 278 279
268 269 268 269 271 272 272 271 271 271 271 271 273 275 274 274 274 274 275 275 275 275 276 277 276 276 276 278 280 279 280 280 279 279 279 278 279 280 279 279 278 278 279
266 266 267 269 272 273 273 272 272 272 272 272 274 276 275 274 275 274 273 273 275 275 276 277 278 277 278 278 280 281 282 282 280 279 280 280 279 279 280 280 280 279 280
268 268 267 269 272 272 272 273 274 274 274 274 275 274 274 274 274 274 272 272 274 276 276 275 277 277 278 278 280 282 282 281 280 280 281 282 282 280 279 279 278 278 279
269 270 269 270 272 272 270 272 273 272 273 274 274 274 275 274 273 273 273 272 273 274 276 276 277 277 276 279 281 281 281 281 281 281 280 280 280 281 281 280 279 279 279
268 269 269 270 271 271 271 272 272 272 272 272 273 275 275 276 277 275 273 274 274 273 274 276 276 278 279 280 280 281 282 282 282 281 281 282 281 280 280 281 281 280 281
268 269 268 269 270 269 270 271 271 271 270 270 271 273 275 275 276 275 274 274 273 273 274 275 277 278 279 280 280 281 282 283 283 283 283 283 282 282 282 284 283 281 282
Height
5844 5843 5843 5842 5842 5841 5840 5839 5839 5839 5839 5838 5837 5837 5838 5838 5838 5839 5840 5840 5841 5842 5843 5844 5845 5845 5847 5848 5849 5849 5850 5851 5851 5852 5852 5852 5852 5852 5852 5852 5851 5851 5851
5839 5838 5838 5837 5837 5836 5836 5835 5835 5834 5834 5834 5834 5834 5833 5835 5835 5836 5836 5837 5838 5839 5840 5841 5842 5843 5844 5845 5846 5846 5847 5848 5848 5848 5849 5849 5849 5849 5848 5848 5848 5847 5847
5834 5833 5833 5833 5832 5832 5831 5831 5830 5830 5830 5830 5830 5830 5830 5830 5831 5832 5833 5834 5835 5836 5837 5838 5839 5840 5841 5841 5842 5843 5844 5844 5844 5845 5845 5845 5845 5845 5845 5844 5844 5843 5843
5829 5828 5827 5827 5827 5827 5827 5827 5826 5826 5826 5826 5826 5826 5826 5827 5828 5828 5829 5830 5832 5832 5833 5834 5835 5836 5837 5838 5838 5839 5840 5840 5840 5841 5841 5841 5841 5840 5840 5840 5839 5839 5838
5825 5824 5823 5822 5822 5822 5822 5822 5822 5822 5821 5821 5822 5822 5822 5823 5824 5825 5826 5827 5828 5829 5830 5831 5831 5832 5833 5834 5834 5835 5835 5836 5836 5836 5836 5836 5836 5836 5836 5835 5835 5834 5834
5820 5819 5818 5817 5817 5817 5817 5817 5817 5817 5817 5818 5818 5818 5819 5819 5820 5821 5822 5823 5824 5825 5826 5826 5827 5828 5829 5829 5830 5830 5831 5831 5831 5832 5832 5831 5831 5831 5831 5830 5830 5829 5829
5815 5814 5813 5813 5812 5812 5812 5812 5812 5813 5813 5813 5813 5814 5814 5815 5816 5817 5818 5819 5820 5821 5821 5822 5823 5823 5824 5825 5825 5826 5826 5827 5827 5827 5827 5827 5826 5826 5826 5825 5825 5825 5824
5809 5809 5808 5808 5807 5808 5808 5808 5808 5808 5808 5809 5809 5809 5810 5810 5811 5812 5813 5814 5815 5816 5817 5817 5818 5818 5819 5820 5821 5821 5822 5822 5822 5821 5821 5822 5821 5821 5820 5820 5820 5820 5819
5805 5803 5803 5803 5803 5803 5803 5803 5803 5803 5804 5804 5804 5805 5805 5806 5807 5808 5809 5809 5810 5811 5812 5812 5813 5813 5814 5815 5816 5816 5816 5816 5816 5816 5816 5816 5816 5816 5815 5815 5815 5815 5814
5800 5799 5798 5798 5797 5798 5799 5799 5799 5800 5799 5799 5800 5800 5801 5802 5803 5803 5804 5805 5805 5806 5806 5807 5808 5809 5809 5810 5810 5811 5811 5811 5811 5811 5811 5811 5811 5811 5810 5809 5809 5809 5808
5795 5795 5794 5793 5792 5793 5794 5795 5795 5795 5795 5795 5795 5796 5796 5797 5798 5799 5799 5800 5800 5801 5801 5801 5802 5803 5804 5805 5805 5805 5805 5805 5806 5806 5806 5806 5805 5805 5804 5804 5803 5803 5802
5791 5790 5789 5789 5789 5789 5790 5790 5790 5791 5791 5791 5791 5791 5792 5793 5794 5794 5795 5795 5796 5796 5796 5797 5797 5798 5799 5799 5799 5799 5800 5800 5800 5800 5800 5800 5799 5799 5798 5798 5797 5797 5796
5786 5785 5785 5785 5785 5785 5786 5786 5786 5786 5786 5786 5786 5786 5787 5788 5789 5789 5790 5790 5791 5791 5791 5791 5792 5792 5792 5793 5793 5793 5794 5794 5794 5794 5794 5794 5793 5793 5792 5792 5791 5790 5790
5782 5781 5781 5781 5781 5781 5781 5781 5780 5780 5781 5781 5782 5782 5782 5783 5784 5784 5785 5785 5786 5786 5786 5786 5786 5786 5786 5787 5787 5787 5787 5787 5787 5787 5787 5787 5786 5786 5785 5785 5784 5784 5783
5777 5776 5776 5775 5776 5776 5776 5775 5776 5775 5776 5776 5777 5777 5778 5778 5779 5779 5780 5780 5781 5781 5780 5780 5780 5780 5780 5780 5780 5780 5780 5780 5780 5780 5780 5779 5779 5778 5778 5778 5777 5777 5776
5772 5771 5771 5770 5770 5771 5770 5770 5770 5770 5770 5771 5772 5773 5773 5774 5774 5774 5775 5775 5775 5775 5774 5774 5774 5774 5774 5774 5773 5773 5773 5773 5773 5773 5773 5772 5771 5771 5771 5770 5770 5770 5769
5766 5765 5765 5765 5765 5765 5765 5765 5765 5765 5766 5766 5767 5767 5768 5768 5768 5769 5769 5769 5769 5769 5768 5768 5767 5767 5767 5767 5766 5766 5766 5766 5766 5765 5765 5764 5764 5764 5763 5763 5763 5762 5762
5761 5760 5760 5759 5759 5759 5759 5759 5759 5760 5760 5761 5761 5762 5762 5762 5763 5763 5763 5763 5763 5762 5762 5761 5761 5760 5760 5760 5760 5759 5759 5759 5758 5758 5757 5757 5756 5756 5756 5755 5755 5755 5754
5755 5754 5754 5754 5754 5754 5754 5754 5754 5754 5755 5755 5756 5756 5756 5756 5756 5756 5756 5756 5756 5755 5755 5754 5754 5753 5754 5753 5753 5752 5752 5751 5751 5750 5750 5749 5749 5748 5748 5748 5748 5747 5747
5749 5748 5749 5748 5748 5748 5748 5749 5749 5749 5749 5749 5750 5750 5750 5750 5749 5749 5749 5748 5748 5748 5748 5747 5747 5746 5746 5746 5746 5745 5744 5744 5743 5743 5742 5742 5741 5740 5740 5740 5740 5740 5739
5742 5742 5743 5743 5743 5743 5743 5743 5743 5743 5743 5743 5743 5743 5742 5742 5742 5741 5741 5741 5741 5741 5741 5740 5740 5739 5739 5739 5738 5737 5736 5736 5735 5735 5734 5734 5733 5733 5732 5732 5731 5731 5731
5735 5736 5736 5736 5737 5737 5737 5736 5736 5736 5736 5736 5736 5735 5735 5735 5734 5734 5734 5734 5734 5734 5733 5733 5732 5732 5731 5731 5730 5730 5729 5728 5727 5727 5726 5726 5725 5725 5724 5724 5724 5723 5723
5729 5730 5730 5730 5731 5730 5730 5730 5729 5729 5729 5729 5729 5728 5728 5728 5727 5727 5727 5727 5727 5726 5726 5725 5725 5725 5724 5724 5723 5722 5721 5720 5720 5719 5719 5718 5718 5717 5717 5716 5715 5715 5715
5722 5723 5723 5724 5724 5724 5723 5723 5723 5722 5722 5722 5722 5721 5721 5721 5720 5720 5720 5720 5719 5719 5718 5718 5718 5717 5717 5717 5716 5714 5714 5713 5712 5711 5710 5710 5710 5709 5708 5708 5707 5707 5706
5715 5715 5716 5716 5716 5716 5716 5716 5715 5715 5715 5715 5714 5714 5714 5713 5713 5712 5712 5712 5712 5711 5711 5711 5711 5711 5710 5709 5708 5707 5706 5705 5704 5703 5703 5702 5702 5701 5701 5700 5699 5699 5699
5707 5707 5708 5708 5708 5708 5708 5708 5708 5708 5708 5707 5707 5707 5706 5706 5706 5705 5705 5705 5705 5705 5704 5704 5704 5703 5703 5702 5701 5700 5699 5698 5697 5696 5696 5695 5695 5694 5694 5693 5693 5693 5692